Tracking 18624 objects as of 30-April-2017
HD Live streaming from Space Station
objects crossing your sky now

AAUSAT CUBESAT 2

Track AAUSAT CUBESAT 2 now!
10-day predictions
AAUSAT CUBESAT 2 is classified as:


NORAD ID: 32788
Int'l Code: 2008-021F
Perigee: 585.9 km
Apogee: 600.5 km
Inclination: 97.6 °
Period: 96.4 minutes
Semi major axis: 6964 km
RCS: 0.034 m2 (small)
Launch date: April 28, 2008
Source: Denmark (DEN)
Launch site: SIRHARIKOTA (SRI)
Uplink (MHz):
Downlink (MHz): 437.429
Beacon (MHz): 437.429
Mode: 1200bps FFSK MSK
Call sign:
Status: Active


This is a CubeSat satellite. AAUSAT-II is the creation of a student team at Aalborg University in Denmark. It will downlink scientific telemetry at 437.425 MHz using 1200 or 9600-baud packet.
Your satellite tracking list
Your tracking list is empty





NASA's NSSDC Master Catalog

Two Line Element Set (TLE):
1 32788U 08021F   17119.67096431 +.00000622 +00000-0 +63790-4 0  9993
2 32788 097.5637 157.4734 0010452 296.4498 063.5649 14.93810959488431
Source of the keplerian elements: Caltech